Regional Weather Roundup
Issued by NWS

Home | Current Version | Previous Version | Text Only | Print | Product List | Glossary On
Versions: 1 2 3 4 5 6 7 8 9 10 11 12 13 14 15 16 17 18 19 20 21 22 23 24 25 26 27 28 29 30 31 32 33 34 35 36 37 38 39 40 41 42 43 44 45 46 47 48 49 50
000
ASUS43 KFSD 270702
RWRSD

WEATHER ROUNDUP FOR SOUTH DAKOTA
NATIONAL WEATHER SERVICE SIOUX FALLS SD
200 AM CDT MON APR 27 2015

NOTE: "FAIR" INDICATES FEW OR NO CLOUDS BELOW 12,000 FEET WITH NO
SIGNIFICANT WEATHER AND/OR OBSTRUCTIONS TO VISIBILITY.


SDZ001>005-009-010-012>017-270800-
NORTHWEST AND NORTH CENTRAL SOUTH DAKOTA

CITY           SKY/WX    TMP DP  RH WIND       PRES   REMARKS
BUFFALO          N/A     43  42  97 N13       30.12R
FAITH            N/A     49  37  63 SE8       30.14S
MOBRIDGE       CLOUDY    48  35  60 NE7       30.14R
$$

SDZ012>016-024>037-041>051-057-063-072>074-270800-
SOUTHWEST AND SOUTH CENTRAL SOUTH DAKOTA

CITY           SKY/WX    TMP DP  RH WIND       PRES   REMARKS
RAPID CTY ARPT MOCLDY    43  41  93 NW5       30.16R
PIERRE         MOCLDY    41  33  73 NE6       30.14S
CUSTER         CLOUDY    38  36  92 CALM      30.16S FOG
PHILIP         CLOUDY    49  38  65 CALM      30.15S
PINE RIDGE     CLOUDY    44  40  85 CALM      30.15S
WINNER         FAIR      47  29  49 S6        30.15R
$$

SDZ004>011-016>023-039-040-270800-
NORTHEAST SOUTH DAKOTA

CITY           SKY/WX    TMP DP  RH WIND       PRES   REMARKS
ABERDEEN       MOCLDY    39  28  64 CALM      30.18R
WATERTOWN      CLEAR     40  23  50 CALM      30.19R
BROOKINGS      CLEAR     37  28  70 CALM      30.19S
SISSETON         N/A     36  27  69 W5        30.18R
$$

SDZ017-020-022-023-036>040-048>070-270800-
SOUTHEAST SOUTH DAKOTA

CITY           SKY/WX    TMP DP  RH WIND       PRES   REMARKS
SIOUX FALLS    CLEAR     42  26  53 NE6       30.15F
HURON          PTCLDY    44  28  53 E6        30.16S
MITCHELL       CLEAR     42  34  73 E6        30.16S
YANKTON        CLEAR     45  28  53 NE6       30.13S
$$

ABBREVIATIONS USED IN REMARKS
   TC - TEMPERATURE IN CELSIUS
  WCI - WIND CHILL INDEX
   HX - HEAT INDEX
  VSB - VISIBILITY




USA.gov is the U.S. government's official web portal to all federal, state and local government web resources and services.